Weather History for KLKU - March, 2012

Change the Weather History Date:

Friday, March 2, 2012

  Actual Average (KCHO) Record (KCHO)
Temperature  
Mean Temperature 42 °F 42 °F  
Max Temperature 53 °F 53 °F 78 °F (1972)
Min Temperature 30 °F 30 °F 10 °F (1980)
Degree Days  
Heating Degree Days 24 23  
Month to date heating degree days 47  
Since 1 July heating degree days 3459  
Cooling Degree Days 0 0  
Month to date cooling degree days 0  
Year to date cooling degree days 0  
Moisture  
Dew Point 37 °F    
Average Humidity 79    
Maximum Humidity 100    
Minimum Humidity 51    
Precipitation  
Precipitation 0.47 in 0.10 in 1.24 in (2002)
Month to date precipitation 0.19  
Year to date precipitation 5.66  
Sea Level Pressure  
Sea Level Pressure 29.94 in    
Wind  
Wind Speed 3 mph (ESE)    
Max Wind Speed 9 mph    
Max Gust Speed -    
Visibility 8 miles    
Events Rain    
T = Trace of Precipitation, MM = Missing Value Source: NWS Daily Summary

Daily Weather History Graph

Daily Weather History Graph

Search for Another Location

Airport or City:

Trip Planner

Search our weather history database for the weather conditions in past years. The results will help you decide how hot, cold, wet, or windy it might be!

Date:

Astronomy

Mar. 02, 2012 Rise Set
Actual Time 6:41 AM EST 6:06 PM EST
Civil Twilight 6:15 AM EST 6:33 PM EST
Nautical Twilight 5:44 AM EST 7:03 PM EST
Astronomical Twilight 5:14 AM EST 7:34 PM EST
Moon 12:21 PM EST (3/2) 2:25 AM EST (3/2)
Length of Visible Light 12h 18m
Length of Day
11h 25m
Waxing Gibbous, 66% of the Moon is Illuminated
Mar 2
Waxing Gibbous
Mar 8
Full
Mar 14
Last Quarter
Mar 22
New
Mar 30
First Quarter

Hourly Weather History & Observations

Time (EST) Temp. Windchill Dew Point Humidity Pressure Visibility Wind Dir Wind Speed Gust Speed Precip Events Conditions
12:15 AM 46.4 °F 44.3 °F 33.8 °F 62% 29.96 in 10.0 mi NNE 4.6 mph - N/A   Clear
12:55 AM 42.8 °F 40.1 °F 33.8 °F 70% 29.98 in 10.0 mi NE 4.6 mph - N/A   Clear
1:15 AM 42.8 °F - 33.8 °F 70% 29.99 in 10.0 mi Calm Calm - N/A   Clear
1:35 AM 37.4 °F - 32.0 °F 81% 29.99 in 10.0 mi Calm Calm - N/A   Clear
1:55 AM 37.4 °F 34.9 °F 32.0 °F 81% 29.99 in 10.0 mi North 3.5 mph - N/A   Clear
2:15 AM 37.4 °F - 32.0 °F 81% 29.99 in 10.0 mi Calm Calm - N/A   Clear
2:35 AM 37.4 °F 34.9 °F 32.0 °F 81% 29.98 in 10.0 mi NNE 3.5 mph - N/A   Clear
2:55 AM 37.4 °F 34.9 °F 30.2 °F 75% 29.99 in 10.0 mi North 3.5 mph - N/A   Clear
3:35 AM 35.6 °F 32.8 °F 30.2 °F 81% 29.98 in 10.0 mi North 3.5 mph - N/A   Clear
3:55 AM 33.8 °F - 30.2 °F 87% 29.99 in 10.0 mi Calm Calm - N/A   Clear
4:15 AM 33.8 °F - 30.2 °F 87% 29.99 in 10.0 mi Calm Calm - N/A   Clear
4:35 AM 33.8 °F - 30.2 °F 87% 30.00 in 10.0 mi Calm Calm - N/A   Clear
4:55 AM 32.0 °F - 30.2 °F 93% 30.01 in 10.0 mi Calm Calm - N/A   Clear
5:15 AM 32.0 °F - 30.2 °F 93% 30.01 in 10.0 mi Calm Calm - N/A   Clear
5:35 AM 32.0 °F - 28.4 °F 87% 30.02 in 10.0 mi Calm Calm - N/A   Clear
5:55 AM 32.0 °F - 28.4 °F 87% 30.03 in 10.0 mi Calm Calm - N/A   Clear
6:15 AM 30.2 °F - 28.4 °F 93% 30.02 in 10.0 mi Calm Calm - N/A   Clear
6:35 AM 32.0 °F - 30.2 °F 93% 30.03 in 10.0 mi Calm Calm - N/A   Scattered Clouds
6:55 AM 30.2 °F - 30.2 °F 100% 30.03 in 10.0 mi Calm Calm - N/A   Mostly Cloudy
7:15 AM 32.0 °F - 30.2 °F 93% 30.02 in 10.0 mi Calm Calm - N/A   Mostly Cloudy
7:35 AM 33.8 °F 30.8 °F 32.0 °F 93% 30.02 in 10.0 mi ENE 3.5 mph - N/A   Mostly Cloudy
7:55 AM 39.2 °F 35.9 °F 35.6 °F 87% 30.03 in 10.0 mi East 4.6 mph - N/A   Mostly Cloudy
8:15 AM 44.6 °F - 37.4 °F 76% 30.05 in 10.0 mi Calm Calm - N/A   Mostly Cloudy
8:35 AM 44.6 °F 43.1 °F 39.2 °F 81% 30.05 in 10.0 mi ESE 3.5 mph - N/A   Mostly Cloudy
8:55 AM 46.4 °F 44.3 °F 39.2 °F 76% 30.04 in 10.0 mi East 4.6 mph - N/A   Scattered Clouds
9:15 AM 46.4 °F 42.9 °F 37.4 °F 71% 30.04 in 10.0 mi SE 6.9 mph - N/A   Clear
9:35 AM 48.2 °F - 35.6 °F 62% 30.03 in 10.0 mi ESE 8.1 mph - N/A   Clear
9:55 AM 50.0 °F - 35.6 °F 58% 30.04 in 10.0 mi SE 6.9 mph - N/A   Clear
10:15 AM 51.8 °F - 35.6 °F 54% 30.02 in 10.0 mi SE 5.8 mph - N/A   Clear
10:35 AM 51.8 °F - 35.6 °F 54% 30.01 in 10.0 mi SE 5.8 mph - N/A   Clear
10:55 AM 51.8 °F - 35.6 °F 54% 30.00 in 10.0 mi SE 5.8 mph - N/A   Clear
11:15 AM 51.8 °F - 35.6 °F 54% 29.98 in 10.0 mi SE 9.2 mph - N/A   Clear
11:35 AM 53.6 °F - 35.6 °F 51% 29.97 in 10.0 mi SE 5.8 mph - N/A   Clear
11:55 AM 53.6 °F - 35.6 °F 51% 29.97 in 10.0 mi SE 5.8 mph - N/A   Clear
12:15 PM 53.6 °F - 35.6 °F 51% 29.96 in 10.0 mi South 3.5 mph - N/A   Clear
12:35 PM 53.6 °F - 35.6 °F 51% 29.95 in 10.0 mi ESE 4.6 mph - N/A   Clear
12:55 PM 53.6 °F - 35.6 °F 51% 29.93 in 10.0 mi SE 4.6 mph - N/A   Scattered Clouds
1:15 PM 51.8 °F - 35.6 °F 54% 29.91 in 10.0 mi East 6.9 mph - N/A   Mostly Cloudy
1:35 PM 51.8 °F - 35.6 °F 54% 29.96 in 10.0 mi Calm Calm - N/A   Light Drizzle
1:55 PM 51.8 °F - 39.2 °F 62% 29.93 in 10.0 mi SE 3.5 mph - N/A   Light Drizzle
2:15 PM 51.8 °F - 37.4 °F 58% 29.92 in 10.0 mi SE 5.8 mph - N/A   Overcast
2:35 PM 50.0 °F - 41.0 °F 71% 29.92 in 7.0 mi SSE 3.5 mph - N/A Rain Light Rain
2:55 PM 48.2 °F - 44.6 °F 87% 29.89 in 5.0 mi ENE 4.6 mph - 0.02 in Rain Rain
3:15 PM 46.4 °F 45.2 °F 42.8 °F 87% 29.88 in 10.0 mi East 3.5 mph - 0.06 in Rain Rain
3:35 PM 46.4 °F 45.2 °F 42.8 °F 87% 29.88 in 7.0 mi ENE 3.5 mph - 0.12 in Rain Rain
3:55 PM 46.4 °F - 42.8 °F 87% 29.87 in 5.0 mi Calm Calm - 0.17 in Rain Rain
4:15 PM 46.4 °F 45.2 °F 42.8 °F 87% 29.87 in 4.0 mi SE 3.5 mph - 0.11 in Rain Rain
4:55 PM 46.4 °F - 42.8 °F 87% 29.89 in 3.0 mi Calm Calm - 0.17 in Rain Rain
5:15 PM 46.4 °F 43.5 °F 42.8 °F 87% 29.84 in 5.0 mi East 5.8 mph - 0.08 in Rain Rain
5:35 PM 46.4 °F - 44.6 °F 93% 29.83 in 7.0 mi Calm Calm - 0.08 in   Overcast
5:55 PM 46.4 °F - 44.6 °F 93% 29.82 in 7.0 mi Calm Calm - 0.08 in   Light Drizzle
6:15 PM 46.4 °F 45.2 °F 44.6 °F 93% 29.83 in 7.0 mi South 3.5 mph - 0.01 in Rain Light Rain
6:35 PM 46.4 °F - 44.6 °F 93% 29.82 in 7.0 mi Calm Calm - 0.02 in   Light Drizzle
6:55 PM 46.4 °F - 44.6 °F 93% 29.80 in 5.0 mi Calm Calm - 0.02 in   Overcast
7:15 PM 46.4 °F - 44.6 °F 93% 29.78 in 5.0 mi Calm Calm - N/A   Overcast
7:35 PM 46.4 °F - 44.6 °F 93% 29.77 in 4.0 mi Calm Calm - N/A   Overcast
7:55 PM 46.4 °F - 44.6 °F 93% 29.76 in 5.0 mi Calm Calm - N/A   Overcast
8:15 PM 46.4 °F - 44.6 °F 93% 29.76 in 7.0 mi Calm Calm - N/A   Overcast
8:35 PM 46.4 °F - 44.6 °F 93% 29.76 in 2.5 mi Calm Calm - N/A   Overcast
8:55 PM 46.4 °F - 44.6 °F 93% 29.76 in 1.5 mi Calm Calm - N/A   Overcast
9:15 PM 46.4 °F - 44.6 °F 93% 29.77 in 1.8 mi Calm Calm - N/A   Overcast
9:35 PM 46.4 °F - 44.6 °F 93% 29.76 in 1.2 mi Calm Calm - 0.01 in   Overcast
9:55 PM 46.4 °F - 44.6 °F 93% 29.74 in 1.2 mi Calm Calm - 0.01 in   Light Drizzle
10:15 PM 46.4 °F - 44.6 °F 93% 29.72 in 1.2 mi Calm Calm - N/A Rain Light Rain
10:35 PM 46.4 °F - 44.6 °F 93% 29.72 in 1.0 mi Calm Calm - N/A   Overcast
10:55 PM 46.4 °F - 44.6 °F 93% 29.71 in 1.0 mi Calm Calm - 0.01 in   Drizzle
11:15 PM 46.4 °F - 44.6 °F 93% 29.71 in 1.8 mi Calm Calm - N/A   Overcast
11:35 PM 46.4 °F 44.3 °F 44.6 °F 93% 29.70 in 1.2 mi North 4.6 mph - N/A   Overcast
11:55 PM 46.4 °F 45.2 °F 44.6 °F 93% 29.69 in 1.2 mi North 3.5 mph - N/A   Overcast